[[{"header":{"parameterUnit":"m.s-1","parameterCategory":1,"la1":30.2991,"la2":30.254,"lo1":-89.0895,"lo2":-89.0444,"dx":0.0017,"dy":0.0017,"nx":28,"ny":28,"refTime":"2023-01-22T03:00:00:Z","depth":0,"parameterNumber":2,"parameterNumberName":"U-component_of_WINDS"},"data":[0,0,0,0,0,0,0,0,0,0,0,0,0,0,0,0,0,0,0,0,0,0,0,0,0,0,0,0,0,0,0,0,0,0,0,0,0,0,0,0,0,0,0,0,0,0,0,0,0,0,0,0,0,0,0,0,0,0,-6.493,-6.4931,0,-6.5009,-6.501,-6.5011,-6.4892,-6.4887,-6.4883,-6.4879,-6.4963,-6.4969,-6.4975,0,0,0,0,0,0,0,0,0,0,0,0,0,-6.4678,-6.4683,-6.493,-6.4931,-6.4932,-6.5009,-6.501,-6.5011,-6.4892,-6.4887,-6.4882,-6.4877,-6.4961,-6.4968,-6.4976,0,0,0,0,0,0,0,0,0,0,0,0,0,-6.4775,-6.4685,-6.493,-6.4882,-6.4878,-6.5009,-6.501,-6.5012,-6.4893,-6.4887,-6.4881,-6.4875,-6.4959,-6.4968,-6.4977,-6.5159,0,0,-6.5005,-6.5009,0,0,0,0,0,0,0,0,-6.477,-6.4785,-6.4888,-6.4885,-6.4882,-6.4934,-6.4952,-6.5061,-6.4895,-6.4888,-6.4879,-6.4872,-6.4959,-6.4968,-6.4996,-6.5163,-6.5166,-6.5006,-6.5011,-6.5015,-6.5018,0,0,0,0,0,0,0,-6.4763,-6.4781,-6.4961,-6.4889,-6.4886,-6.4857,-6.4864,-6.4972,-6.4958,-6.4888,-6.4879,-6.489,-6.4956,-6.4988,-6.4997,-6.5168,-6.5005,-6.5014,-6.5019,-6.5023,-6.5487,-6.5493,0,0,0,0,0,0,-6.4762,-6.4776,-6.4959,-6.4964,-6.4809,-6.4867,-6.4874,-6.4924,-6.4956,-6.4955,-6.4896,-6.4884,-6.4975,-6.4987,-6.5,-6.5213,-6.5015,-6.5024,-6.5029,-6.548,-6.5488,-6.5495,0,0,0,0,0,0,-6.4757,-6.4779,-6.4955,-6.4867,-6.4888,-6.4878,-6.4934,-6.4928,-6.496,-6.4962,-6.4959,-6.493,-6.4971,-6.4987,-6.512,-6.5214,-6.5028,-6.5036,-6.5472,-6.5482,-6.5492,-6.5643,0,0,0,0,0,0,-6.475,-6.4778,-6.4847,-6.487,-6.4893,-6.5074,-6.494,-6.4935,-6.4976,-6.4962,-6.4994,-6.4993,-6.4967,-6.5107,-6.5129,-6.5224,-6.5043,-6.5463,-6.5476,-6.5489,-6.5629,-6.5657,-6.5681,0,0,0,0,0,-6.4742,-6.4887,-6.4851,-6.4873,-6.4978,-6.5079,-6.5092,-6.5059,-6.4984,-6.5053,-6.5054,-6.4992,-6.5202,-6.5121,-6.5145,-6.5244,-6.5457,-6.5473,-6.5488,-6.5618,-6.5651,-6.568,0,0,0,0,0,0,-6.4876,-6.4889,-6.4849,-6.5006,-6.5042,-6.5059,-6.5144,-6.5096,-6.5155,-6.5139,-6.5096,-6.5104,-6.5246,-6.5259,-6.517,-6.5422,-6.5317,-6.5338,-6.5408,-6.544,-6.5465,-6.5457,-6.5051,0,0,0,0,0,-6.4924,-6.5004,-6.5012,-6.515,-6.517,-6.5155,-6.5198,-6.5169,-6.5205,-6.522,-6.523,-6.5269,-6.5343,-6.5393,-6.5461,-6.5632,-6.5636,-6.5712,-6.5738,-6.5759,-6.5776,-6.5866,-6.5899,-6.5546,-6.5546,-6.5545,0,0,-6.5023,-6.504,-6.5094,-6.5177,-6.5201,-6.5286,-6.5168,-6.5263,-6.5325,-6.5234,-6.5359,-6.5369,-6.5409,-6.5561,-6.5629,-6.5576,-6.5876,-6.5778,-6.5795,-6.5801,-6.5885,-6.5919,-6.5948,-6.5556,-6.5554,-6.5553,0,0,-6.5246,-6.5269,-6.5384,-6.5412,-6.5451,-6.544,-6.5468,-6.5493,-6.5495,-6.562,-6.5553,-6.5628,-6.5757,-6.5788,-6.582,-6.6058,-6.6002,-6.6082,-6.6214,-6.6302,-6.633,-6.6354,-6.6436,-6.6467,-6.61,-6.61,-6.61,0,-6.5364,-6.5488,-6.5451,-6.555,-6.5588,-6.551,-6.5627,-6.5656,-6.5716,-6.5744,-6.5685,-6.5845,-6.5866,-6.6024,-6.6081,-6.6112,-6.6142,-6.6076,-6.6329,-6.6353,-6.6375,-6.6453,-6.6484,-6.6109,-6.6108,-6.6107,-6.6106,0,-6.5631,-6.5718,-6.5808,-6.5866,-6.5915,-6.6023,-6.6002,-6.6057,-6.6025,-6.602,-6.6149,-6.6172,-6.6243,-6.628,-6.625,-6.6433,-6.6399,-6.6336,-6.6228,-6.6419,-6.6491,-6.6521,-6.6122,-6.6119,-6.6116,-6.6114,0,0,-6.5937,-6.5975,-6.6008,-6.6033,-6.6071,-6.6138,-6.6244,-6.6312,-6.6359,-6.6404,-6.649,-6.6602,-6.6543,-6.658,-6.6554,-6.6632,-6.6815,-6.6558,-6.6558,-6.6602,-6.7017,-6.7061,-6.7096,-6.678,-6.6786,-6.679,-6.7012,0,-6.6158,-6.6337,-6.6307,-6.6481,-6.6561,-6.6489,-6.658,-6.6614,-6.6614,-6.6682,-6.6682,-6.6761,-6.6679,-6.67,-6.6775,-6.6777,-6.6897,-6.6761,-6.6859,-6.6863,-6.6847,-6.7134,-6.7182,-6.739,-6.704,-6.7045,-6.7049,0,-6.6437,-6.6491,-6.6673,-6.6698,-6.6731,-6.6813,-6.6874,-6.694,-6.6978,-6.6972,-6.7014,-6.6973,-6.7079,-6.6973,-6.7117,-6.7025,-6.7064,-6.7072,-6.7079,-6.7083,-6.6964,-6.7144,-6.7456,-6.7485,-6.7093,-6.709,-6.7087,0,-6.6639,-6.6758,-6.6881,-6.6906,-6.6939,-6.6999,-6.7015,-6.7046,-6.709,-6.7144,-6.7171,-6.7238,-6.7273,-6.7326,-6.7304,-6.723,-6.7452,-6.7345,-6.7449,-6.745,-6.7495,-6.7492,-6.7814,-6.7528,-6.7527,-6.7527,-6.7526,0,-6.6885,-6.6999,-6.6972,-6.7048,-6.7173,-6.7139,-6.7264,-6.7272,-6.7301,-6.7377,-6.7321,-6.7394,-6.7363,-6.7434,-6.7419,-6.7539,-6.7557,-6.7554,-6.7548,-6.7557,-6.7557,-6.7579,-6.7562,-6.7535,-6.7533,-6.7531,-6.753,0,-6.7129,-6.7116,-6.7246,-6.7267,-6.7275,-6.7366,-6.7385,-6.7456,-6.7452,-6.755,-6.7571,-6.7565,-6.7646,-6.7631,-6.7721,-6.771,-6.786,-6.7838,-6.7847,-6.784,-6.7944,-6.7933,-6.8288,-6.8332,-6.8021,-6.8024,-6.8026,0,-6.7285,-6.737,-6.7401,-6.7448,-6.7469,-6.7546,-6.7589,-6.756,-6.7608,-6.7658,-6.7723,-6.7799,-6.7857,-6.7991,-6.7995,-6.8064,-6.804,-6.8161,-6.805,-6.8056,-6.8038,-6.8031,-6.8039,-6.8181,-6.8184,-6.8187,-6.819,0,-6.7562,-6.7552,-6.7617,-6.768,-6.7734,-6.7783,-6.7826,-6.7868,-6.7843,-6.79,-6.7981,-6.8027,-6.8119,-6.8194,-6.8258,-6.8276,-6.8229,-6.8225,-6.8252,-6.826,-6.826,-6.8258,-6.7902,-6.8216,-6.8213,-6.8211,-6.821,-6.8209,-6.7764,-6.7836,-6.7869,-6.7943,-6.7973,-6.8015,-6.8082,-6.8087,-6.8155,-6.8225,-6.8206,-6.8298,-6.8334,-6.8415,-6.8441,-6.8513,-6.8468,-6.8508,-6.8517,-6.8527,-6.8537,-6.8252,-6.8525,-6.8524,-6.8524,-6.8523,-6.8522,0,-6.8035,-6.8053,-6.8122,-6.8184,-6.8243,-6.8194,-6.824,-6.8292,-6.8374,-6.8411,-6.847,-6.8564,-6.8638,-6.8649,-6.8719,-6.8775,-6.8754,-6.8794,-6.8787,-6.8791,-6.8575,-6.8543,-6.8808,-6.8808,-6.8808,-6.8808,-6.8808,-6.8808,-6.8182,-6.8301,-6.8295,-6.8428,-6.8445,-6.8534,-6.8564,-6.8603,-6.8632,-6.8739,-6.88,-6.8807,-6.8834,-6.8905,-6.8971,-6.8972,-6.8999,-6.9046,-6.9039,-6.8836,-6.8807,-6.8779,-6.8749,-6.9053,-6.9053,-6.9248,-6.925,-6.9251]},{"header":{"parameterUnit":"m.s-1","parameterCategory":1,"la1":30.2991,"la2":30.254,"lo1":-89.0895,"lo2":-89.0444,"dx":0.0017,"dy":0.0017,"nx":28,"ny":28,"refTime":"2023-01-22T03:00:00:Z","depth":0,"parameterNumber":3,"parameterNumberName":"V-component_of_WINDS"},"data":[0,0,0,0,0,0,0,0,0,0,0,0,0,0,0,0,0,0,0,0,0,0,0,0,0,0,0,0,0,0,0,0,0,0,0,0,0,0,0,0,0,0,0,0,0,0,0,0,0,0,0,0,0,0,0,0,0,0,-0.5755,-0.5754,0,-0.5604,-0.5602,-0.56,-0.5571,-0.5572,-0.5574,-0.5575,-0.5413,-0.5408,-0.5402,0,0,0,0,0,0,0,0,0,0,0,0,0,-0.6011,-0.6007,-0.5756,-0.5754,-0.5752,-0.5604,-0.5602,-0.56,-0.5571,-0.5572,-0.5574,-0.5575,-0.5415,-0.5408,-0.5402,0,0,0,0,0,0,0,0,0,0,0,0,0,-0.5884,-0.6005,-0.5756,-0.572,-0.5715,-0.5605,-0.5602,-0.5599,-0.5571,-0.5573,-0.5574,-0.5576,-0.5417,-0.5409,-0.5401,-0.5314,0,0,-0.5376,-0.5372,0,0,0,0,0,0,0,0,-0.5891,-0.5874,-0.5727,-0.5722,-0.5717,-0.5608,-0.5633,-0.5503,-0.557,-0.5625,-0.5575,-0.5577,-0.5476,-0.5463,-0.5431,-0.5306,-0.5299,-0.5375,-0.537,-0.5367,-0.5365,0,0,0,0,0,0,0,-0.59,-0.5881,-0.5695,-0.5725,-0.5718,-0.5708,-0.5692,-0.5608,-0.5542,-0.5621,-0.5618,-0.5601,-0.5474,-0.5439,-0.5427,-0.5297,-0.5376,-0.5368,-0.5363,-0.536,-0.5088,-0.5086,0,0,0,0,0,0,-0.5916,-0.5888,-0.57,-0.5691,-0.581,-0.5702,-0.5684,-0.5641,-0.5543,-0.553,-0.56,-0.56,-0.5452,-0.5436,-0.5421,-0.5308,-0.5367,-0.5359,-0.5355,-0.509,-0.5088,-0.5085,0,0,0,0,0,0,-0.5922,-0.59,-0.5706,-0.5789,-0.5763,-0.5696,-0.5648,-0.5637,-0.5602,-0.5527,-0.5514,-0.5576,-0.5452,-0.5432,-0.534,-0.5302,-0.5356,-0.5348,-0.5093,-0.5089,-0.5086,-0.5085,0,0,0,0,0,0,-0.5929,-0.5902,-0.5871,-0.5788,-0.5759,-0.5631,-0.5646,-0.5633,-0.5589,-0.5588,-0.5502,-0.5489,-0.5452,-0.5352,-0.5332,-0.5292,-0.5342,-0.5096,-0.5091,-0.5087,-0.5088,-0.5082,-0.5077,0,0,0,0,0,-0.5939,-0.5876,-0.5869,-0.5847,-0.5719,-0.5629,-0.5612,-0.5572,-0.5586,-0.5552,-0.5503,-0.5492,-0.5311,-0.5343,-0.532,-0.5277,-0.5098,-0.5093,-0.5088,-0.5091,-0.5083,-0.5077,0,0,0,0,0,0,-0.5954,-0.5865,-0.5856,-0.5766,-0.5705,-0.5624,-0.558,-0.5566,-0.5499,-0.5501,-0.5453,-0.5433,-0.5342,-0.5301,-0.5339,-0.5185,-0.5205,-0.5195,-0.5215,-0.5207,-0.5202,-0.5212,-0.5335,0,0,0,0,0,-0.5947,-0.5884,-0.5809,-0.5736,-0.5706,-0.5648,-0.5608,-0.5582,-0.5517,-0.549,-0.5435,-0.537,-0.5297,-0.5251,-0.518,-0.5083,-0.5061,-0.5042,-0.5036,-0.5032,-0.5022,-0.4963,-0.4952,-0.5068,-0.5068,-0.5068,0,0,-0.5932,-0.5875,-0.5838,-0.5737,-0.5688,-0.5619,-0.5627,-0.5556,-0.5504,-0.5479,-0.5388,-0.5345,-0.5268,-0.5172,-0.5127,-0.5134,-0.4986,-0.5025,-0.5022,-0.5015,-0.4956,-0.4945,-0.4935,-0.5064,-0.5065,-0.5065,0,0,-0.5868,-0.5821,-0.5753,-0.5703,-0.5628,-0.5589,-0.5573,-0.5493,-0.5464,-0.5372,-0.5351,-0.5287,-0.5165,-0.511,-0.5066,-0.4978,-0.4964,-0.4957,-0.4926,-0.4868,-0.4859,-0.4851,-0.4815,-0.4803,-0.4949,-0.4949,-0.4949,0,-0.5858,-0.5757,-0.572,-0.5648,-0.5602,-0.5579,-0.5507,-0.5459,-0.5364,-0.5331,-0.5342,-0.5185,-0.5133,-0.5021,-0.4999,-0.4966,-0.4942,-0.4965,-0.4864,-0.4855,-0.4846,-0.4811,-0.4799,-0.4948,-0.4948,-0.4948,-0.4948,0,-0.5746,-0.5676,-0.563,-0.5539,-0.5488,-0.5417,-0.5365,-0.5318,-0.5297,-0.5256,-0.516,-0.5096,-0.501,-0.4982,-0.4961,-0.4865,-0.4872,-0.4874,-0.4892,-0.4835,-0.4801,-0.4788,-0.4947,-0.4947,-0.4947,-0.4948,0,0,-0.5687,-0.5575,-0.5558,-0.5515,-0.5429,-0.5373,-0.5299,-0.5217,-0.5174,-0.5109,-0.5043,-0.4939,-0.4939,-0.4889,-0.4861,-0.4811,-0.474,-0.4818,-0.4816,-0.4802,-0.4625,-0.4621,-0.4606,-0.4731,-0.4729,-0.4726,-0.463,0,-0.5609,-0.5479,-0.5441,-0.533,-0.5262,-0.5237,-0.5172,-0.511,-0.507,-0.5004,-0.4958,-0.4883,-0.4892,-0.4861,-0.4811,-0.4759,-0.4703,-0.4766,-0.4664,-0.4661,-0.468,-0.4589,-0.4586,-0.4497,-0.4617,-0.4615,-0.4613,0,-0.5502,-0.5435,-0.5317,-0.5236,-0.5206,-0.5148,-0.5067,-0.5007,-0.4934,-0.4908,-0.4851,-0.4827,-0.4744,-0.477,-0.4653,-0.4697,-0.4653,-0.4621,-0.4616,-0.4602,-0.4631,-0.4568,-0.4469,-0.4454,-0.4593,-0.4594,-0.4596,0,-0.5465,-0.5345,-0.5258,-0.5222,-0.5127,-0.5086,-0.5044,-0.4974,-0.4926,-0.4854,-0.4821,-0.4741,-0.4696,-0.4633,-0.4586,-0.4609,-0.4471,-0.4494,-0.4443,-0.4443,-0.4412,-0.4413,-0.43,-0.4391,-0.4391,-0.4391,-0.4392,0,-0.538,-0.5307,-0.5239,-0.5185,-0.5101,-0.5058,-0.4976,-0.4932,-0.4869,-0.4803,-0.4778,-0.4716,-0.4659,-0.4589,-0.4551,-0.4457,-0.4438,-0.4411,-0.4401,-0.4411,-0.4414,-0.4379,-0.4382,-0.4388,-0.4389,-0.4389,-0.439,0,-0.5323,-0.5276,-0.5177,-0.5095,-0.5073,-0.5014,-0.4942,-0.4886,-0.4845,-0.4762,-0.4739,-0.4673,-0.4588,-0.4536,-0.4429,-0.4403,-0.4298,-0.4293,-0.4322,-0.4317,-0.4267,-0.4271,-0.4123,-0.4099,-0.4211,-0.421,-0.4209,0,-0.527,-0.5213,-0.5125,-0.508,-0.5037,-0.4965,-0.4915,-0.487,-0.4818,-0.473,-0.4683,-0.4598,-0.4526,-0.4391,-0.4331,-0.4247,-0.4237,-0.4191,-0.4224,-0.4234,-0.423,-0.4232,-0.4223,-0.4184,-0.4183,-0.4182,-0.4182,0,-0.5179,-0.5157,-0.5088,-0.5009,-0.495,-0.4885,-0.4821,-0.4784,-0.4727,-0.467,-0.4583,-0.4528,-0.4417,-0.433,-0.4241,-0.4194,-0.4176,-0.4172,-0.4155,-0.4162,-0.4179,-0.4164,-0.4302,-0.4175,-0.4175,-0.4176,-0.4176,-0.4177,-0.5118,-0.5065,-0.4994,-0.4916,-0.4862,-0.4802,-0.4744,-0.4696,-0.4624,-0.4531,-0.4508,-0.4416,-0.4341,-0.422,-0.4171,-0.4096,-0.4102,-0.4078,-0.4071,-0.4065,-0.4061,-0.4196,-0.408,-0.408,-0.408,-0.408,-0.408,0,-0.5021,-0.4974,-0.4903,-0.4813,-0.4751,-0.4743,-0.467,-0.4617,-0.4537,-0.447,-0.44,-0.4298,-0.4213,-0.4146,-0.4058,-0.401,-0.3999,-0.3988,-0.3988,-0.3977,-0.4063,-0.4085,-0.3998,-0.3998,-0.3998,-0.3998,-0.3998,-0.3998,-0.4963,-0.4871,-0.4841,-0.4721,-0.4673,-0.4584,-0.4542,-0.4485,-0.443,-0.4319,-0.4248,-0.4206,-0.4138,-0.4044,-0.3964,-0.3946,-0.3912,-0.3901,-0.3881,-0.3963,-0.3971,-0.398,-0.3999,-0.3896,-0.3896,-0.38,-0.3799,-0.3799]}]]